Location: Brachbach
(49.1847°N, 9.7240°E)
Time: 04:26:38
(UTC+00:00)

STARS - Pass Details

Date: 18 March 2026
Orbit: 575 x 588 km, 98.2° (Epoch: 15 April)

Event Time Altitude Azimuth Distance (km) Brightness Sun altitude
Rises 02:31:30 0° 4° (N) 2,801 ? -28.1°
Reaches altitude 10° 02:33:56 10° 351° (N) 1,897 ? -27.8°
Enters shadow 02:34:51 15° 342° (NNW) 1,605 ? -27.6°
